Regional Weather Roundup
Issued by NWS Sioux Falls, SD

Home | Current Version | Previous Version | Text Only | Print | Product List | Glossary Off
Versions: 1 2 3 4 5 6 7 8 9 10 11 12 13 14 15 16 17 18 19 20 21 22 23 24 25 26 27 28 29 30 31 32 33 34 35 36 37 38 39 40 41 42 43 44 45 46 47 48 49 50

000
ASUS43 KFSD 260002
RWRFSD

WEATHER ROUNDUP FOR SE SOUTH DAKOTA/SW MINNESOTA/NW IOWA
NATIONAL WEATHER SERVICE SIOUX FALLS SD
700 PM CDT FRI JUL 25 2014

NOTE: "FAIR" INDICATES FEW OR NO CLOUDS BELOW 12,000 FEET WITH NO
SIGNIFICANT WEATHER AND OR OBSTRUCTIONS TO VISIBILITY.


SDZ038>040-050-052>070-260100-
SOUTHEAST SOUTH DAKOTA

CITY           SKY/WX    TMP DP  RH WIND       PRES   REMARKS
CHAMBERLAIN    MOSUNNY   85  69  58 NE6       29.79S
6HR MIN TEMP:  84; 6HR MAX TEMP:  88;

HURON          CLOUDY    79  68  69 NE10      29.79R
6HR MIN TEMP:  78; 6HR MAX TEMP:  82;

MADISON        FAIR      81  72  74 N10       29.80R
MITCHELL       MOSUNNY   81  70  69 N10       29.79S
6HR MIN TEMP:  81; 6HR MAX TEMP:  89;

SIOUX FALLS    MOSUNNY   86  69  56 CALM      29.76F
6HR MIN TEMP:  78; 6HR MAX TEMP:  87;

WINNER         FAIR      92  61  35 VRB5      29.80S
YANKTON        MOSUNNY   84  73  70 E7        29.75S
$$

MNZ071-072-080-081-089-090-097-098-260100-
SOUTHWEST MINNESOTA

CITY           SKY/WX    TMP DP  RH WIND       PRES   REMARKS
FAIRMONT       CLOUDY    79  61  53 S7        29.79S
JACKSON        PTSUNNY   81  68  65 S6        29.79S
LUVERNE        SUNNY     84  70  61 CALM      29.78S
MARSHALL       PTSUNNY   81  72  74 N7          N/A
6HR MIN TEMP:  81; 6HR MAX TEMP:  84;

MONTEVIDEO     CLOUDY    81  72  74 NE6       29.76S
PIPESTONE      PTSUNNY   82  68  61 CALM      29.79S
REDWOOD FALLS  MOSUNNY   83  72  69 CALM      29.74F
TRACY          MOSUNNY   84  71  64 CALM      29.76F
WINDOM         MOSUNNY   82  70  65 S5        29.78S
WORTHINGTON    CLOUDY    81  72  74 CALM      29.80F
$$

IAZ001>003-012>014-020>022-031-032-NEZ013-014-SDZ071-260100-
NORTHWEST IOWA

CITY           SKY/WX    TMP DP  RH WIND       PRES   REMARKS
CHEROKEE       CLOUDY    79  73  81 CALM      29.78S
DENISON        CLOUDY    84  75  74 E5        29.75S
ESTHERVILLE    CLOUDY    77  69  76 S7        29.79S
LE MARS        CLOUDY    81  73  78 NE5       29.77S
ORANGE CITY    CLOUDY    81  72  74 SE3       29.78F
SIOUX CITY     MOSUNNY   86  73  65 E6        29.75S
6HR MIN TEMP:  82; 6HR MAX TEMP:  89;

SPENCER        CLOUDY    78  70  76 S3        29.80R
6HR MIN TEMP:  75; 6HR MAX TEMP:  79;

STORM LAKE     CLOUDY    77  73  88 CALM      29.80S
$$

ABBREVIATIONS USED IN REMARKS
   TC - TEMPERATURE IN CELSIUS
  WCI - WIND CHILL INDEX
   HX - HEAT INDEX
  VSB - VISIBILITY




USA.gov is the U.S. government's official web portal to all federal, state and local government web resources and services.